星链-11159 (STARLINK-11159)

导读 | 豆包AI

STARLINK-11159是美国太空探索技术公司(SpaceX)星链互联网星座中的一颗卫星,于2024年8月31日08:00发射升空。星链计划旨在构建全球卫星互联网覆盖网络,该卫星入轨后将服务于全球范围高速互联网接入,为偏远地区、航空航海等场景提供网络连接支持,进一步扩充星链星座的服务能力与覆盖范围。

基本信息
目录编号:
60905
目录名称:
STARLINK-11159
国际标识:
2024-154C
轨道中心:
EARTH
卫星名称:
星链-11159
卫星全名:
星链-11159 (STARLINK-11159)
卫星状态:
在轨 (已飞行561 天)
发射日期:
2024-08-31 UTC
国别 :
美国 (US)
星等 :
--
轨道信息
数据来源 国际轨道数据
星历时间: 2026-03-15T14:01:22+0800
8小时前
查看轨道信息
半长轴: 6737.874km
偏心率: 0.0001111
轨道倾角: 53.159°
近地点辐角 96.475°
升交点赤经 104.159°
平近点角 263.639°
近地点: 358.988km
远地点: 360.486km
周期: 91.737分钟
每日圈数: 15.697065
详细信息
固有亮度:
5
最大亮度:
2.5
卫星平台:
Starlink V1.0
覆盖范围:
全球
运营商:
太空探索技术公司
运营商所在国:
美国
制造商(研发单位):
太空探索技术公司
制造商所在国:
美国
使用方式:
暂无
卫星简介
Starlink 计划是 SpaceX 推出的全球卫星互联网项目,通过发射低轨道卫星,为全球尤其是偏远地区提供高速、低延迟的互联网服务。自 2019 年起,Starlink 已部署数千颗卫星,旨在缩小全球数字鸿沟,推动互联网普及。该项目还为军事、航空等行业提供通信支持,带来广泛经济效益。
2D轨道图
3D轨道图
轨道高度分析图
轨道倾角分析图
轨道综合分析图
查看轨道综合分析图